Flag for Brunei Weather for the Past 2 Weeks in Bandar Seri Begawan, Brunei

Now
77 °F

Sprinkles. Partly cloudy.


Feels Like: 78 °F
Forecast: 82 / 92 °F
Wind: 7 mph from East

Location: Brunei Airport

Current Time: Apr 29, 2016 at 6:00:14 AM

Latest Report: Apr 29, 2016 at 5:00 AM


Visibility: 5 mi

Pressure: 29.80 "Hg

Humidity: 94%

Dew Point: 75 °F

Location of Bandar Seri BegawanLocation

Historic Weather in Bandar Seri Begawan — Graph

°F

Bandar Seri Begawan Temperature Yesterday

Maximum temperature yesterday: 91 °F (at 12:00 PM)
Minimum temperature yesterday: 79 °F (at 3:00 AM)
Average temperature yesterday: 84 °F

High & Low Weather Summary for the Past Weeks

 TemperatureHumidityPressure
High97 °F (Apr 20, 1:30 PM)100% (Apr 14, 6:30 AM)29.92 "Hg (Apr 14, 6:30 AM)
Low73 °F (Apr 14, 8:30 AM)42% (Apr 20, 2:30 PM)29.68 "Hg (Apr 24, 4:30 PM)
Average85 °F81%29.82 "Hg
* Reported Apr 14 4:00 AM — Apr 29 4:00 AM, Bandar Seri Begawan, Weather by CustomWeather, © 2016

Note: Actual official high and low records may vary slightly from our data, if they occured in-between our weather recording intervals... More about our weather records

Advertising

Bandar Seri Begawan Weather History for the Previous 24 Hours

Scroll right to see more
 ConditionsComfort  
Time TempWeatherWind HumidityBarometerVisibility
4:00 AM
Fri, Apr 29
82 °FPassing clouds.5 mph89%29.80 "HgN/A
3:30 AM82 °FPassing clouds.1 mph94%29.77 "HgN/A
3:00 AM82 °FPassing clouds.1 mph94%29.77 "HgN/A
2:30 AM82 °FPassing clouds.2 mph89%29.80 "HgN/A
2:00 AM82 °FPassing clouds.2 mph89%29.80 "HgN/A
1:30 AM82 °FPassing clouds.2 mph89%29.80 "HgN/A
1:00 AM82 °FPartly cloudy.1 mph89%29.80 "HgN/A
12:30 AM82 °FPartly cloudy.2 mph89%29.80 "HgN/A
12:00 AM82 °FPassing clouds.1 mph89%29.83 "HgN/A
11:30 PM
Thu, Apr 28
82 °FPassing clouds.No wind89%29.83 "HgN/A
11:00 PM84 °FPassing clouds.2 mph84%29.83 "HgN/A
10:30 PM84 °FPassing clouds.1 mph84%29.83 "HgN/A
10:00 PM84 °FPassing clouds.1 mph84%29.83 "HgN/A
9:30 PM84 °FPassing clouds.3 mph84%29.83 "HgN/A
9:00 PM84 °FPassing clouds.2 mph84%29.80 "HgN/A
8:30 PM86 °FPassing clouds.2 mph75%29.80 "HgN/A
8:00 PM86 °FPassing clouds.2 mph79%29.80 "HgN/A
7:30 PM86 °FPassing clouds.2 mph75%29.77 "HgN/A
7:00 PM86 °FPassing clouds.3 mph75%29.77 "HgN/A
6:30 PM86 °FPassing clouds.6 mph75%29.77 "HgN/A
6:00 PM88 °FPartly sunny.6 mph75%29.77 "HgN/A
5:30 PM90 °FPartly sunny.6 mph71%29.74 "HgN/A
5:00 PM90 °FPartly sunny.7 mph71%29.74 "HgN/A
4:00 PM90 °FPartly sunny.6 mph67%29.74 "HgN/A
3:30 PM90 °FPartly sunny.8 mph67%29.74 "HgN/A
2:00 PM90 °FBroken clouds.7 mph71%29.77 "HgN/A
1:30 PM90 °FBroken clouds.8 mph71%29.77 "HgN/A
1:00 PM90 °FBroken clouds.6 mph71%29.80 "HgN/A
12:00 PM91 °FBroken clouds.2 mph63%29.83 "HgN/A
11:30 AM90 °FPartly sunny.3 mph63%29.83 "HgN/A
11:00 AM90 °FPartly sunny.3 mph63%29.83 "HgN/A
10:30 AM88 °FBroken clouds.5 mph70%29.86 "HgN/A
10:00 AM84 °FBroken clouds.6 mph79%29.86 "HgN/A
9:30 AM86 °FBroken clouds.5 mph79%29.86 "HgN/A
9:00 AM86 °FBroken clouds.5 mph79%29.89 "HgN/A
8:30 AM84 °FPartly sunny.6 mph84%29.89 "HgN/A
8:00 AM82 °FPartly sunny.2 mph84%29.86 "HgN/A
7:30 AM81 °FPartly sunny.1 mph94%29.86 "HgN/A
6:30 AM79 °FPartly sunny.1 mph94%29.83 "HgN/A
6:00 AM79 °FPassing clouds.2 mph94%29.83 "HgN/A
Weather by CustomWeather, © 2016

See weather overviewHow to use our weather pages